Flag for Canada Weather past 2 weeks in Nelson, British Columbia, Canada

Now
37 °F

Chilly.


Feels Like: 32 °F
Forecast: 26 / 49 °F
Wind: 6 mph from West

Location: Nelson

Current Time: Apr 19, 2015 at 6:31:48 AM

Latest Report: Apr 19, 2015 at 6:00 AM


Visibility: N/A

Pressure: 30.26 "Hg

Humidity: 78%

Dew point: 31 °F

Location of NelsonLocation

Historic Weather in Nelson — Graph

°F

Nelson temperature yesterday

Maximum temperature yesterday: 67 °F (at 6:00 PM)
Minimum temperature yesterday: 39 °F (at 6:00 AM)
Average temperature yesterday: 52 °F

Past Weeks' High & Low Weather Summary

 TemperatureHumidityPressure
High68 °F (Apr 17, 3:00 PM)97% (Apr 8, 6:00 AM)30.43 "Hg (Apr 8, 6:00 AM)
Low29 °F (Apr 5, 6:00 AM)14% (Apr 18, 5:00 PM)29.58 "Hg (Apr 11, 7:00 AM)
Average46 °F60%30.01 "Hg
* Reported Apr 4 5:00 AM — Apr 19 5:00 AM, Nelson, Weather by CustomWeather, © 2015

Note: Actual official high and low records may vary slightly from our data, if they occured in-between our weather recording intervals... More about our weather records

Advertising

Nelson weather history for previous 24 hours

 ConditionsComfort  
Time TempWeatherWind HumidityBarometerVisibility
5:00 AM
Sun, Apr 19
37 °FChilly.5 mph84%30.25 "HgN/A
4:00 AM38 °FChilly.3 mph74%30.25 "HgN/A
3:00 AM38 °FChilly.3 mph75%30.24 "HgN/A
2:00 AM39 °FChilly.1 mph75%30.24 "HgN/A
1:00 AM41 °FQuite cool.2 mph76%30.23 "HgN/A
12:00 AM43 °FQuite cool.2 mph70%30.23 "HgN/A
11:00 PM
Sat, Apr 18
45 °FQuite cool.2 mph67%30.22 "HgN/A
10:00 PM46 °FCool.No wind53%30.22 "HgN/A
9:00 PM50 °FCool.1 mph52%30.21 "HgN/A
8:00 PM53 °FCool.1 mph37%30.19 "HgN/A
7:00 PM58 °FRefreshingly cool.3 mph36%30.18 "HgN/A
6:00 PM67 °FMild.2 mph16%30.18 "HgN/A
5:00 PM67 °FMild.8 mph14%30.18 "HgN/A
4:00 PM66 °FMild.12 mph17%30.19 "HgN/A
3:00 PM66 °FMild.10 mph18%30.21 "HgN/A
2:00 PM65 °FMild.8 mph19%30.22 "HgN/A
1:00 PM65 °FMild.8 mph18%30.24 "HgN/A
12:00 PM62 °FRefreshingly cool.8 mph27%30.25 "HgN/A
11:00 AM59 °FRefreshingly cool.8 mph34%30.27 "HgN/A
10:00 AM55 °FCool.9 mph36%30.29 "HgN/A
9:00 AM52 °FCool.6 mph48%30.29 "HgN/A
8:00 AM47 °FCool.7 mph60%30.30 "HgN/A
7:00 AM39 °FChilly.5 mph80%30.29 "HgN/A
6:00 AM39 °FChilly.3 mph81%30.27 "HgN/A
Weather by CustomWeather, © 2015

See weather overviewHow to use our weather pages